Flag for Ireland Weather past 2 weeks in Dublin, Ireland

Now
57 °F

Partly cloudy.


Feels Like: 55 °F
Forecast: 55 / 66 °F
Wind: 12 mph from Southeast

Location: Dublin Airport

Current Time: Jul 4, 2015 at 6:15:40 AM

Latest Report: Jul 4, 2015 at 5:30 AM


Visibility: 6 mi

Pressure: 29.80 "Hg

Humidity: 94%

Dew point: 55 °F

Location of DublinLocation

Historic Weather in Dublin — Graph

°F

Dublin temperature yesterday

Maximum temperature yesterday: 66 °F (at 2:00 PM)
Minimum temperature yesterday: 46 °F (at 4:30 AM)
Average temperature yesterday: 60 °F

Past Weeks' High & Low Weather Summary

 TemperatureHumidityPressure
High77 °F (Jun 30, 2:00 PM)100% (Jun 23, 4:00 AM)30.24 "Hg (Jun 23, 4:00 AM)
Low39 °F (Jun 23, 3:00 AM)40% (Jun 26, 4:30 PM)29.74 "Hg (Jul 1, 11:00 AM)
Average61 °F74%30.00 "Hg
* Reported Jun 19 5:30 AM — Jul 4 5:00 AM, Dublin, Weather by CustomWeather, © 2015

Note: Actual official high and low records may vary slightly from our data, if they occured in-between our weather recording intervals... More about our weather records

Advertising

Dublin weather history for previous 24 hours

 ConditionsComfort  
Time TempWeatherWind HumidityBarometerVisibility
5:00 AM
Sat, Jul 4
57 °FPartly cloudy.9 mph94%29.80 "HgN/A
4:30 AM57 °FPartly cloudy.9 mph94%29.83 "Hg6 mi
4:00 AM59 °FPartly cloudy.15 mph88%29.83 "Hg6 mi
3:30 AM57 °FPartly cloudy.13 mph94%29.83 "Hg6 mi
3:00 AM59 °FPassing clouds.17 mph88%29.83 "HgN/A
2:30 AM59 °FSprinkles. Passing clouds.17 mph88%29.86 "HgN/A
2:00 AM57 °FSprinkles. Passing clouds.10 mph94%29.86 "HgN/A
1:30 AM57 °FSprinkles. Passing clouds.12 mph94%29.89 "HgN/A
1:00 AM59 °FSprinkles. Passing clouds.14 mph88%29.89 "Hg5 mi
12:30 AM59 °FSprinkles. Passing clouds.17 mph88%29.92 "Hg5 mi
12:00 AM59 °FPassing clouds.12 mph82%29.92 "HgN/A
11:30 PM
Fri, Jul 3
59 °FPassing clouds.8 mph82%29.95 "HgN/A
11:00 PM59 °FPassing clouds.9 mph82%29.95 "HgN/A
10:30 PM59 °FScattered showers. Scattered clouds.12 mph82%30.01 "HgN/A
10:00 PM59 °FScattered showers. Partly sunny.10 mph82%30.01 "HgN/A
9:30 PM59 °FBroken clouds.9 mph82%30.01 "HgN/A
9:00 PM59 °FBroken clouds.9 mph82%30.04 "HgN/A
8:30 PM59 °FBroken clouds.8 mph82%30.04 "HgN/A
8:00 PM61 °FBroken clouds.12 mph77%30.07 "HgN/A
7:30 PM63 °FPartly sunny.12 mph73%30.07 "HgN/A
7:00 PM63 °FPartly sunny.14 mph73%30.09 "HgN/A
6:30 PM64 °FPartly sunny.15 mph68%30.09 "HgN/A
6:00 PM64 °FPartly sunny.14 mph68%30.09 "HgN/A
5:30 PM64 °FPartly sunny.14 mph68%30.12 "HgN/A
5:00 PM64 °FBroken clouds.13 mph68%30.12 "HgN/A
4:30 PM66 °FBroken clouds.14 mph68%30.15 "HgN/A
4:00 PM64 °FPartly sunny.14 mph68%30.15 "HgN/A
3:30 PM66 °FPartly sunny.16 mph64%30.15 "HgN/A
3:00 PM64 °FPartly sunny.17 mph68%30.15 "HgN/A
2:30 PM66 °FScattered clouds.15 mph64%30.18 "HgN/A
2:00 PM66 °FScattered clouds.16 mph64%30.18 "HgN/A
1:30 PM64 °FPassing clouds.20 mph68%30.18 "HgN/A
1:00 PM64 °FScattered clouds.18 mph73%30.18 "HgN/A
12:30 PM64 °FScattered clouds.21 mph73%30.21 "HgN/A
12:00 PM64 °FScattered clouds.21 mph73%30.18 "HgN/A
11:30 AM64 °FScattered clouds.18 mph73%30.21 "HgN/A
11:00 AM64 °FScattered clouds.14 mph73%30.21 "HgN/A
10:30 AM64 °FScattered clouds.17 mph73%30.21 "HgN/A
10:00 AM64 °FFog.18 mph73%30.21 "HgN/A
9:30 AM64 °FFog.14 mph73%30.21 "HgN/A
9:00 AM61 °FFog.13 mph83%30.21 "HgN/A
8:30 AM61 °FFog.9 mph83%30.21 "HgN/A
8:00 AM63 °FFog.9 mph73%30.21 "HgN/A
7:30 AM61 °FPartly sunny.10 mph77%30.21 "HgN/A
7:00 AM61 °FPartly sunny.9 mph77%30.21 "HgN/A
6:30 AM57 °FPartly sunny.8 mph88%30.21 "HgN/A
6:00 AM52 °FPassing clouds.7 mph88%30.21 "HgN/A
Weather by CustomWeather, © 2015

See weather overviewHow to use our weather pages